Location: Deurze
(52.9838°N, 6.6090°E)
Time: 18:54:42
(UTC+00:00)

ADEOS - Pass Details

Date: 11 March 2026
Orbit: 790 x 791 km, 98.8° (Epoch: 20 April)

Event Time Altitude Azimuth Distance (km) Brightness Sun altitude
Exits shadow 19:11:36 20° 138° (SE) 1,771 4.9 -15.9°
Maximum altitude 19:15:06 56° 67° (ENE) 944 3.7 -16.4°
Drops below altitude 10° 19:20:12 10° 351° (N) 2,369 6.4 -17.1°
Sets 19:22:34 0° 347° (NNW) 3,303 7.2 -17.5°
